Location: Cubitt Town
(51.4833°N, 0.0000°E)
Time: 03:36:24
(UTC+00:00)

Cosmos 2219 Rocket - Pass Details

Date: 15 May 2026
Orbit: 825 x 846 km, 71.0° (Epoch: 8 June)

Event Time Altitude Azimuth Distance (km) Brightness Sun altitude
Rises 21:56:35 0° 328° (NNW) 3,405 7.3 -14.8°
Reaches altitude 10° 21:59:02 10° 327° (NNW) 2,470 6.0 -14.9°
Maximum altitude 22:04:41 74° 244° (WSW) 882 2.3 -15.4°
Enters shadow 22:08:13 24° 163° (SSE) 1,691 3.2 -15.6°
